User: anonymous   Login
Location: Oshawa
(43.9000°N, 78.8670°W)
Time: 21:43:37
(UTC-04:00)
Language:

Altair - Orbit

View from above orbital plane
View from above orbital plane
View from above satellite
View from above satellite

Ground track
Ground track

The orbit data is extracted from the following two-line orbital elements,

1    50U 60009B   17290.29889232 -.00000085 +00000-0 -47721-5 0  9993
2    50 047.2310 264.6999 0114496 302.3744 056.6007 12.20103177551286
Epoch (UTC): 17 October 2017 07:10:24
Eccentricity: 0.0114496
inclination: 47.2310°
perigee height: 1501 km
apogee height: 1683 km
right ascension of ascending node: 264.6999°
argument of perigee: 302.3744°
revolutions per day: 12.20103177
mean anomaly at epoch: 56.6007°
orbit number at epoch: 55128

The dashed part of the orbit path shows where the satellite is in the earth's shadow,  

DLR